This is the latest recevied weather packets stored in our database for station/object KA9CBS. If no packets are shown the sender has not sent any weather packets the latest 10 day(s).
| Time | Temp. | Humidity | Pressure | Rain* | Wind** | Luminosity | Snow |
|---|---|---|---|---|---|---|---|
| 1777743265 | 12.22° C | 71% | 1020.7 hPa | 0 mm | - | 741 W/m² | - |
| 1777742964 | 12.22° C | 71% | 1020.6 hPa | 0 mm | - | 701 W/m² | - |
| 1777742661 | 12.78° C | 76% | 1020.7 hPa | 0 mm | - | 685 W/m² | - |
| 1777742357 | 12.78° C | 72% | 1020.6 hPa | 0 mm | - | 704 W/m² | - |
| 1777742053 | 12.22° C | 72% | 1020.5 hPa | 0 mm | - | 723 W/m² | - |
| 1777741751 | 11.67° C | 75% | 1020.7 hPa | 0 mm | - | 719 W/m² | - |
| 1777741447 | 11.67° C | 76% | 1020.7 hPa | 0 mm | - | 716 W/m² | - |
| 1777741142 | 11.67° C | 74% | 1020.7 hPa | 0 mm | - | 739 W/m² | - |
| 1777740840 | 11.11° C | 75% | 1020.7 hPa | 0 mm | - | 441 W/m² | - |
| 1777740536 | 11.11° C | 77% | 1020.9 hPa | 0 mm | - | 395 W/m² | - |
| 1777740233 | 10.56° C | 79% | 1020.8 hPa | 0 mm | - | 339 W/m² | - |
| 1777739929 | 11.11° C | 77% | 1020.9 hPa | 0 mm | - | 367 W/m² | - |
| 1777739626 | 10.56° C | 80% | 1020.8 hPa | 0 mm | - | 348 W/m² | - |
| 1777739324 | 10.56° C | 80% | 1020.8 hPa | 0 mm | - | 281 W/m² | - |
| 1777739020 | 10° C | 81% | 1020.7 hPa | 0 mm | - | 293 W/m² | - |
| 1777738717 | 10° C | 81% | 1020.7 hPa | 0 mm | - | 308 W/m² | - |
| 1777738413 | 10° C | 83% | 1020.4 hPa | 0 mm | - | 264 W/m² | - |
| 1777738112 | 10° C | 83% | 1020.5 hPa | 0 mm | - | 204 W/m² | - |
| 1777737810 | 10° C | 84% | 1020.3 hPa | 0 mm | - | 164 W/m² | - |
| 1777737508 | 10° C | 84% | 1020.5 hPa | 0 mm | - | 150 W/m² | - |
| 1777737206 | 10° C | 83% | 1020.6 hPa | 0 mm | - | 153 W/m² | - |
| 1777736901 | 10° C | 84% | 1020.3 hPa | 0 mm | - | 147 W/m² | - |
| 1777736294 | 10.56° C | 82% | 1020.4 hPa | 0 mm | - | 142 W/m² | - |
| 1777735990 | 11.67° C | 78% | 1020.3 hPa | 0 mm | - | 96 W/m² | - |
| 1777735688 | 11.67° C | 76% | 1020.3 hPa | 0 mm | - | 63 W/m² | - |
* Rain latest hour (hover to see other rain measurements)
** Current wind speed in m/s (hover to see current wind gust speed)